When you browse on this site, cookies collect data to enhance your experience and personalize the content and advertising you see.
Visit our Privacy Policy to learn more. By continuing to use the site, you agree to this use of cookies and data.
  • In Hungary
  • List of Countries
  • For 7 days
  • Water Temperature
  • Satellite Maps
  • Weather Map
  • News
  • Weather Widgets
  • user-avatar
    Login

    Hourly Weather Langxiang

    Today, 16 February, Saturday

    Time Temperature Precipitation Wind Pressure Humidity
    00:00 -15°C° 0 mm 1 mps 727 mmHg 68%
    01:00 -15°C° 0 mm 1 mps 727 mmHg 69%
    02:00 -15°C° 0 mm 1 mps 727 mmHg 71%
    03:00 -16°C° 0 mm 1 mps 727 mmHg 72%
    04:00 -16°C° 0 mm 1 mps 727 mmHg 77%
    05:00 -16°C° 0 mm 1 mps 727 mmHg 81%
    06:00 -16°C° 0 mm 1 mps 727 mmHg 86%
    07:00 -18°C° 0 mm 2 mps 727 mmHg 84%
    08:00 -17°C° 0 mm 2 mps 727 mmHg 83%
    09:00 -16°C° 0 mm 2 mps 727 mmHg 81%
    10:00 -14°C° 0 mm 2 mps 727 mmHg 71%
    11:00 -13°C° 0 mm 3 mps 726 mmHg 62%
    12:00 -10°C° 0 mm 3 mps 726 mmHg 52%
    13:00 -10°C° 0 mm 3 mps 726 mmHg 53%
    14:00 -10°C° 0 mm 4 mps 726 mmHg 53%
    15:00 -10°C° 0 mm 4 mps 725 mmHg 54%
    16:00 -11°C° 0 mm 4 mps 725 mmHg 58%
    17:00 -12°C° 0 mm 4 mps 725 mmHg 63%
    18:00 -13°C° 0 mm 3 mps 725 mmHg 68%
    19:00 -14°C° 0 mm 3 mps 725 mmHg 67%
    20:00 -14°C° 0 mm 3 mps 725 mmHg 67%
    21:00 -15°C° 0 mm 3 mps 725 mmHg 67%
    22:00 -14°C° 0 mm 2 mps 725 mmHg 67%
    23:00 -14°C° 0 mm 2 mps 725 mmHg 68%

    Tomorrow, 17 February, Sunday

    Time Temperature Precipitation Wind Pressure Humidity
    00:00 -14°C° 0 mm 2 mps 725 mmHg 68%
    01:00 -15°C° 0 mm 2 mps 725 mmHg 69%
    02:00 -15°C° 0 mm 2 mps 725 mmHg 70%
    03:00 -15°C° 0 mm 2 mps 725 mmHg 70%
    04:00 -15°C° 0 mm 2 mps 724 mmHg 72%
    05:00 -15°C° 0 mm 2 mps 724 mmHg 73%
    06:00 -16°C° 0 mm 2 mps 724 mmHg 75%
    07:00 -15°C° 0 mm 2 mps 724 mmHg 73%
    08:00 -14°C° 0 mm 2 mps 725 mmHg 71%
    09:00 -14°C° 0 mm 2 mps 725 mmHg 69%
    10:00 -12°C° 0 mm 2 mps 725 mmHg 64%
    11:00 -10°C° 0 mm 3 mps 725 mmHg 60%
    12:00 -9°C° 0 mm 3 mps 725 mmHg 55%
    13:00 -8°C° 0 mm 3 mps 725 mmHg 55%
    14:00 -8°C° 0 mm 3 mps 725 mmHg 55%
    15:00 -7°C° 0 mm 3 mps 725 mmHg 56%
    16:00 -7°C° 0 mm 2 mps 725 mmHg 63%
    17:00 -9°C° 0 mm 2 mps 725 mmHg 71%
    18:00 -9°C° 0 mm 1 mps 725 mmHg 78%
    19:00 -10°C° 0 mm 1 mps 726 mmHg 79%
    20:00 -10°C° 0 mm 1 mps 726 mmHg 80%
    21:00 -11°C° 0 mm 1 mps 726 mmHg 81%
    22:00 -11°C° 0 mm 1 mps 726 mmHg 80%
    23:00 -11°C° 0 mm 1 mps 726 mmHg 78%

    Day after tomorrow, 18 February, Monday

    Time Temperature Precipitation Wind Pressure Humidity
    00:00 -11°C° 0 mm 1 mps 726 mmHg 76%
    01:00 -11°C° 0 mm 1 mps 726 mmHg 76%
    02:00 -11°C° 0 mm 1 mps 726 mmHg 75%
    03:00 -11°C° 0 mm 1 mps 726 mmHg 75%
    04:00 -12°C° 0 mm 1 mps 726 mmHg 75%
    05:00 -12°C° 0 mm 1 mps 726 mmHg 75%
    06:00 -12°C° 0 mm 1 mps 726 mmHg 75%
    07:00 -11°C° 0 mm 1 mps 726 mmHg 71%
    08:00 -12°C° 0 mm 2 mps 726 mmHg 67%
    09:00 -10°C° 0 mm 2 mps 726 mmHg 63%
    10:00 -8°C° 0 mm 2 mps 726 mmHg 57%
    11:00 -8°C° 0 mm 3 mps 726 mmHg 50%
    12:00 -7°C° 0 mm 4 mps 726 mmHg 44%
    13:00 -5°C° 0 mm 4 mps 726 mmHg 43%
    14:00 -5°C° 0 mm 4 mps 726 mmHg 41%
    15:00 -5°C° 0 mm 5 mps 726 mmHg 39%
    16:00 -7°C° 0 mm 4 mps 726 mmHg 45%
    17:00 -7°C° 0 mm 3 mps 726 mmHg 50%
    18:00 -8°C° 0 mm 2 mps 726 mmHg 55%
    19:00 -8°C° 0 mm 2 mps 726 mmHg 54%
    20:00 -9°C° 0 mm 2 mps 727 mmHg 53%
    21:00 -9°C° 0 mm 2 mps 727 mmHg 52%
    22:00 -9°C° 0 mm 2 mps 727 mmHg 53%
    23:00 -10°C° 0 mm 2 mps 727 mmHg 53%

    19 February, Tuesday

    Time Temperature Precipitation Wind Pressure Humidity
    00:00 -10°C° 0 mm 2 mps 727 mmHg 54%
    01:00 -12°C° 0 mm 2 mps 727 mmHg 55%
    02:00 -10°C° 0 mm 1 mps 727 mmHg 57%
    03:00 -10°C° 0 mm 1 mps 727 mmHg 58%
    04:00 -11°C° 0 mm 1 mps 727 mmHg 59%
    05:00 -11°C° 0 mm 1 mps 727 mmHg 60%
    06:00 -11°C° 0 mm 1 mps 727 mmHg 61%
    07:00 -10°C° 0 mm 1 mps 727 mmHg 59%
    08:00 -9°C° 0 mm 1 mps 728 mmHg 56%
    09:00 -9°C° 0 mm 1 mps 728 mmHg 53%
    10:00 -6°C° 0 mm 1 mps 728 mmHg 46%
    11:00 -3°C° 0 mm 1 mps 728 mmHg 40%
    12:00 -1°C° 0 mm 1 mps 729 mmHg 33%
    13:00 0°C° 0 mm 1 mps 729 mmHg 34%
    14:00 0°C° 0 mm 1 mps 728 mmHg 34%
    15:00 0°C° 0 mm 1 mps 728 mmHg 34%
    16:00 -1°C° 0 mm 1 mps 728 mmHg 42%
    17:00 -3°C° 0 mm 1 mps 728 mmHg 49%
    18:00 -6°C° 0 mm 1 mps 729 mmHg 57%
    19:00 -6°C° 0 mm 1 mps 729 mmHg 60%
    20:00 -7°C° 0 mm 1 mps 730 mmHg 63%
    21:00 -8°C° 0 mm 0 mps 730 mmHg 66%
    22:00 -8°C° 0 mm 0 mps 730 mmHg 68%
    23:00 -8°C° 0 mm 1 mps 730 mmHg 71%

    20 February, Wednesday

    Time Temperature Precipitation Wind Pressure Humidity
    00:00 -9°C° 0 mm 1 mps 731 mmHg 73%
    01:00 -9°C° 0 mm 1 mps 731 mmHg 77%
    02:00 -9°C° 0 mm 1 mps 731 mmHg 80%
    03:00 -9°C° 0 mm 0 mps 731 mmHg 83%
    04:00 -10°C° 0 mm 0 mps 731 mmHg 82%
    05:00 -10°C° 0 mm 0 mps 731 mmHg 82%
    06:00 -10°C° 0 mm 0 mps 731 mmHg 81%
    07:00 -9°C° 0 mm 0 mps 731 mmHg 75%
    08:00 -8°C° 0 mm 0 mps 732 mmHg 70%
    09:00 -7°C° 0 mm 0 mps 732 mmHg 64%
    10:00 -5°C° 0 mm 0 mps 732 mmHg 55%
    11:00 -3°C° 0 mm 0 mps 732 mmHg 47%
    12:00 -1°C° 0 mm 0 mps 732 mmHg 39%
    13:00 0°C° 0 mm 1 mps 732 mmHg 38%
    14:00 +1°C° 0 mm 1 mps 731 mmHg 38%
    15:00 -1°C° 0 mm 2 mps 731 mmHg 37%
    16:00 -1°C° 0 mm 1 mps 731 mmHg 45%
    17:00 -2°C° 0 mm 1 mps 731 mmHg 53%
    18:00 -4°C° 0 mm 1 mps 731 mmHg 61%
    19:00 -4°C° 0 mm 1 mps 731 mmHg 65%
    20:00 -6°C° 0 mm 1 mps 731 mmHg 68%
    21:00 -7°C° 0 mm 1 mps 732 mmHg 72%
    22:00 -7°C° 0 mm 1 mps 732 mmHg 73%
    23:00 -7°C° 0 mm 1 mps 732 mmHg 75%

    21 February, Thursday

    Time Temperature Precipitation Wind Pressure Humidity
    00:00 -8°C° 0 mm 1 mps 732 mmHg 76%
    01:00 -8°C° 0 mm 1 mps 732 mmHg 76%
    02:00 -8°C° 0 mm 1 mps 731 mmHg 77%
    03:00 -8°C° 0 mm 1 mps 731 mmHg 78%
    04:00 -9°C° 0 mm 1 mps 731 mmHg 78%
    05:00 -9°C° 0 mm 1 mps 731 mmHg 78%
    06:00 -9°C° 0 mm 1 mps 731 mmHg 78%
    07:00 -9°C° 0 mm 2 mps 731 mmHg 71%
    08:00 -8°C° 0 mm 2 mps 731 mmHg 65%
    09:00 -7°C° 0 mm 2 mps 732 mmHg 59%
    10:00 -5°C° 0 mm 2 mps 731 mmHg 52%
    11:00 -3°C° 0 mm 2 mps 731 mmHg 44%
    12:00 -1°C° 0 mm 3 mps 731 mmHg 37%
    13:00 -1°C° 0 mm 3 mps 731 mmHg 37%
    14:00 -1°C° 0 mm 3 mps 731 mmHg 38%
    15:00 0°C° 0 mm 3 mps 730 mmHg 38%
    16:00 -2°C° 0 mm 2 mps 731 mmHg 44%
    17:00 -3°C° 0 mm 2 mps 731 mmHg 50%
    18:00 -3°C° 0 mm 1 mps 731 mmHg 56%
    19:00 -3°C° 0 mm 1 mps 731 mmHg 57%
    20:00 -4°C° 0 mm 1 mps 732 mmHg 58%
    21:00 -6°C° 0 mm 1 mps 732 mmHg 60%
    22:00 -6°C° 0 mm 1 mps 732 mmHg 59%
    23:00 -6°C° 0 mm 0 mps 732 mmHg 59%
    Show more